Chicopee, MA

11:02 PM EST on January 23, 2017 (GMT -0500)
Westover Air Reserve Base / Metropolitan Airport

Weather History for KCEF - October, 2011

Change the Weather History Date:

Monday, October 3, 2011

  Actual Average Record
Temperature  
Mean Temperature 56 °F -  
Max Temperature 64 °F 63 °F 78 °F (2001)
Min Temperature 48 °F 41 °F 30 °F (2003)
Degree Days  
Heating Degree Days 9    
Growing Degree Days 6 (Base 50)    
Moisture  
Dew Point 50 °F    
Average Humidity 92    
Maximum Humidity 100    
Minimum Humidity 50    
Precipitation  
Precipitation 0.07 in - - ()
Sea Level Pressure  
Sea Level Pressure 29.98 in    
Wind  
Wind Speed 1 mph (South)    
Max Wind Speed 10 mph    
Max Gust Speed -    
Visibility 6 miles    
Events Fog , Rain    
Averages and records for this station are not official NWS values.
T = Trace of Precipitation, MM = Missing Value Source: NWS Daily Summary

Daily Weather History Graph

Daily Weather History Graph

Search for Another Location

Airport or City:

Trip Planner

Search our weather history database for the weather conditions in past years. The results will help you decide how hot, cold, wet, or windy it might be!

Date:

Astronomy

Oct. 03, 2011 Rise Set
Actual Time 6:49 AM EDT 6:28 PM EDT
Civil Twilight 6:21 AM EDT 6:56 PM EDT
Nautical Twilight 5:48 AM EDT 7:29 PM EDT
Astronomical Twilight 5:15 AM EDT 8:01 PM EDT
Moon 1:50 PM EDT (10/3) 11:23 PM EDT (10/3)
Length of Visible Light 12h 35m
Length of Day
11h 39m
Waxing Crescent, 45% of the Moon is Illuminated
Oct 3
Waxing Crescent
Oct 3
First Quarter
Oct 11
Full
Oct 19
Last Quarter
Oct 26
New

Hourly Weather History & Observations

Time (EDT) Temp. Dew Point Humidity Pressure Visibility Wind Dir Wind Speed Gust Speed Precip Events Conditions
12:01 AM 51.8 °F 51.8 °F 100% 29.92 in 3.0 mi Calm Calm - N/A Fog Clear
12:28 AM 50.0 °F 48.2 °F 94% 29.91 in 2.5 mi Calm Calm - N/A   Clear
12:29 AM 50.0 °F 48.2 °F 94% 29.92 in 2.0 mi Calm Calm - N/A   Clear
12:30 AM 48.2 °F 48.2 °F 100% 29.92 in 1.8 mi Calm Calm - N/A   Clear
12:31 AM 50.0 °F 48.2 °F 94% 29.92 in 1.5 mi Calm Calm - N/A   Clear
12:35 AM 50.0 °F 50.0 °F 100% 29.92 in 1.2 mi Calm Calm - N/A   Clear
12:36 AM 50.0 °F 50.0 °F 100% 29.92 in 1.5 mi Calm Calm - N/A   Clear
12:37 AM 50.0 °F 50.0 °F 100% 29.92 in 1.2 mi Calm Calm - N/A   Clear
12:39 AM 50.0 °F 50.0 °F 100% 29.92 in 1.0 mi Calm Calm - N/A   Clear
12:40 AM 50.0 °F 50.0 °F 100% 29.92 in 0.8 mi Calm Calm - N/A   Clear
12:43 AM 50.0 °F 50.0 °F 100% 29.92 in 0.5 mi Calm Calm - N/A Fog Fog
12:45 AM 50.0 °F 48.2 °F 94% 29.92 in 0.5 mi Calm Calm - N/A Fog Fog
12:46 AM 50.0 °F 50.0 °F 100% 29.92 in 0.5 mi Calm Calm - N/A Fog Fog
12:55 AM 48.6 °F 48.0 °F 98% 29.92 in 0.5 mi Calm Calm - N/A Fog Fog
12:56 AM 48.2 °F 48.2 °F 100% 29.92 in 0.8 mi Calm Calm - N/A   Clear
12:58 AM 48.2 °F 48.2 °F 100% 29.92 in 1.0 mi Calm Calm - N/A   Clear
12:59 AM 48.2 °F 48.2 °F 100% 29.92 in 1.2 mi Calm Calm - N/A   Partly Cloudy
1:00 AM 48.2 °F 48.2 °F 100% 29.92 in 1.5 mi Calm Calm - N/A   Partly Cloudy
1:01 AM 48.2 °F 48.2 °F 100% 29.92 in 2.0 mi Calm Calm - N/A   Partly Cloudy
1:02 AM 50.0 °F 48.2 °F 94% 29.92 in 3.0 mi Calm Calm - N/A   Partly Cloudy
1:55 AM 49.1 °F 48.6 °F 98% 29.93 in 10.0 mi Calm Calm - N/A   Mostly Cloudy
2:52 AM 51.8 °F 51.8 °F 100% 29.94 in 9.0 mi Calm Calm - N/A Rain Light Rain
2:55 AM 52.5 °F 52.0 °F 98% 29.94 in 9.0 mi Calm Calm - 0.00 in Rain Light Rain
3:14 AM 51.8 °F 51.8 °F 100% 29.93 in 10.0 mi Calm Calm - N/A   Mostly Cloudy
3:27 AM 51.8 °F 50.0 °F 94% 29.93 in 10.0 mi Calm Calm - N/A   Mostly Cloudy
3:43 AM 50.0 °F 50.0 °F 100% 29.93 in 2.5 mi Calm Calm - N/A   Partly Cloudy
3:44 AM 50.0 °F 50.0 °F 100% 29.93 in 2.0 mi Calm Calm - N/A   Partly Cloudy
3:45 AM 50.0 °F 50.0 °F 100% 29.93 in 1.8 mi Calm Calm - N/A   Partly Cloudy
3:46 AM 50.0 °F 50.0 °F 100% 29.93 in 1.5 mi Calm Calm - N/A   Partly Cloudy
3:48 AM 50.0 °F 50.0 °F 100% 29.94 in 1.2 mi Calm Calm - N/A   Partly Cloudy
3:50 AM 50.0 °F 50.0 °F 100% 29.94 in 1.0 mi Calm Calm - N/A   Clear
3:51 AM 50.0 °F 50.0 °F 100% 29.94 in 1.0 mi Calm Calm - N/A   Partly Cloudy
3:55 AM 50.0 °F 49.5 °F 98% 29.94 in 1.0 mi Calm Calm - 0.00 in   Partly Cloudy
3:56 AM 50.0 °F 48.2 °F 94% 29.95 in 1.2 mi Calm Calm - N/A   Scattered Clouds
3:57 AM 50.0 °F 48.2 °F 94% 29.95 in 1.2 mi Calm Calm - N/A   Scattered Clouds
3:58 AM 50.0 °F 48.2 °F 94% 29.95 in 1.5 mi Calm Calm - N/A   Scattered Clouds
4:00 AM 50.0 °F 50.0 °F 100% 29.95 in 1.8 mi Calm Calm - N/A   Mostly Cloudy
4:01 AM 50.0 °F 50.0 °F 100% 29.95 in 2.5 mi Calm Calm - N/A   Mostly Cloudy
4:02 AM 50.0 °F 50.0 °F 100% 29.95 in 3.0 mi Calm Calm - N/A   Mostly Cloudy
4:06 AM 50.0 °F 50.0 °F 100% 29.95 in 9.0 mi Calm Calm - N/A   Mostly Cloudy
4:14 AM 51.8 °F 50.0 °F 94% 29.95 in 10.0 mi Calm Calm - N/A   Mostly Cloudy
4:23 AM 51.8 °F 50.0 °F 94% 29.95 in 10.0 mi Calm Calm - N/A   Overcast
4:28 AM 51.8 °F 51.8 °F 100% 29.96 in 10.0 mi Calm Calm - N/A   Overcast
4:37 AM 51.8 °F 51.8 °F 100% 29.96 in 10.0 mi Calm Calm - N/A   Overcast
4:52 AM 51.8 °F 51.8 °F 100% 29.96 in 10.0 mi Calm Calm - N/A   Overcast
4:55 AM 52.2 °F 51.6 °F 98% 29.96 in 10.0 mi Calm Calm - N/A   Overcast
5:17 AM 51.8 °F 51.8 °F 100% 29.97 in 9.0 mi Calm Calm - N/A   Overcast
5:44 AM 51.8 °F 51.8 °F 100% 29.98 in 10.0 mi Calm Calm - N/A   Overcast
5:55 AM 52.3 °F 51.8 °F 98% 29.98 in 10.0 mi Calm Calm - N/A   Overcast
6:35 AM 51.8 °F 51.8 °F 100% 30.00 in 10.0 mi Calm Calm - N/A   Overcast
6:55 AM 52.9 °F 52.3 °F 98% 30.01 in 10.0 mi Calm Calm - N/A   Mostly Cloudy
7:55 AM 53.8 °F 53.2 °F 98% 30.01 in 10.0 mi South 4.6 mph - N/A   Overcast
8:37 AM 53.6 °F 53.6 °F 100% 30.04 in 10.0 mi SSE 3.5 mph - N/A   Overcast
8:55 AM 54.5 °F 53.6 °F 97% 30.05 in 10.0 mi SSE 4.6 mph - N/A   Overcast
9:05 AM 55.4 °F 53.6 °F 94% 30.05 in 10.0 mi Variable 3.5 mph - N/A   Overcast
9:07 AM 55.4 °F 53.6 °F 94% 30.05 in 10.0 mi Variable 3.5 mph - N/A   Overcast
9:55 AM 55.9 °F 53.1 °F 90% 30.06 in 10.0 mi Calm Calm - N/A   Overcast
10:21 AM 57.2 °F 51.8 °F 82% 30.07 in 10.0 mi Calm Calm - N/A   Overcast
10:28 AM 57.2 °F 51.8 °F 82% 30.07 in 10.0 mi Variable 5.8 mph - N/A   Overcast
10:34 AM 57.2 °F 51.8 °F 82% 30.07 in 10.0 mi SW 8.1 mph - N/A   Overcast
10:37 AM 59.0 °F 51.8 °F 77% 30.07 in 10.0 mi SW 6.9 mph - N/A   Overcast
10:46 AM 57.2 °F 50.0 °F 77% 30.07 in 10.0 mi SSW 9.2 mph - N/A   Overcast
10:47 AM 57.2 °F 50.0 °F 77% 30.07 in 10.0 mi SSW 9.2 mph - N/A   Overcast
10:55 AM 57.9 °F 49.6 °F 74% 30.07 in 10.0 mi SW 9.2 mph - N/A   Overcast
10:58 AM 57.2 °F 50.0 °F 77% 30.07 in 10.0 mi SSW 10.4 mph - N/A   Overcast
11:55 AM 57.0 °F 48.9 °F 74% 30.08 in 10.0 mi SW 10.4 mph - N/A   Overcast
12:55 PM 58.8 °F 45.9 °F 62% 30.07 in 10.0 mi SSE 3.5 mph - N/A   Overcast
1:55 PM 59.7 °F 44.4 °F 57% 30.06 in 10.0 mi Calm Calm - N/A   Overcast
2:55 PM 63.1 °F 45.9 °F 53% 30.05 in 10.0 mi South 5.8 mph - N/A   Partly Cloudy
3:55 PM 64.0 °F 45.1 °F 50% 30.04 in 10.0 mi Calm Calm - N/A   Clear
4:55 PM 60.6 °F 45.9 °F 58% 30.03 in 10.0 mi SSW 3.5 mph - N/A   Mostly Cloudy
5:55 PM 60.1 °F 48.9 °F 67% 30.05 in 10.0 mi SE 3.5 mph - N/A   Mostly Cloudy
6:55 PM 56.3 °F 52.3 °F 87% 30.04 in 10.0 mi NE 3.5 mph - N/A   Overcast
7:55 PM 54.1 °F 52.3 °F 94% 30.05 in 10.0 mi NNE 3.5 mph - N/A   Mostly Cloudy
8:38 PM 53.6 °F 53.6 °F 100% 30.05 in 10.0 mi NE 3.5 mph - N/A   Light Drizzle
8:55 PM 54.5 °F 52.5 °F 93% 30.05 in 10.0 mi NNE 3.5 mph - 0.00 in   Light Drizzle
9:23 PM 55.4 °F 51.8 °F 88% 30.05 in 10.0 mi Calm Calm - N/A Rain Light Rain
9:44 PM 53.6 °F 51.8 °F 94% 30.04 in 10.0 mi Calm Calm - N/A   Overcast
9:55 PM 54.7 °F 51.6 °F 89% 30.05 in 10.0 mi Calm Calm - 0.01 in   Overcast
10:25 PM 53.6 °F 51.8 °F 94% 30.05 in 10.0 mi Calm Calm - N/A Rain Light Rain
10:55 PM 54.0 °F 52.9 °F 96% 30.06 in 10.0 mi Calm Calm - 0.01 in Rain Light Rain
11:55 PM 53.2 °F 52.7 °F 98% 30.04 in 10.0 mi NNE 4.6 mph - 0.05 in Rain Light Rain